Budapest Ferihegy, Hungary

5:14 PM CEST on September 19, 2018 (GMT +0200)
Ferihegy

Weather History for LHBP - July, 2018

Change the Weather History Date:

Thursday, July 12, 2018

  Actual Average Record
Temperature  
Mean Temperature 68 °F -  
Max Temperature 77 °F 78 °F 93 °F (2002)
Min Temperature 59 °F 57 °F 50 °F (1996)
Cooling Degree Days 3    
Growing Degree Days 18 (Base 50)    
Moisture  
Dew Point 55 °F    
Average Humidity 64    
Maximum Humidity 100    
Minimum Humidity 38    
Precipitation  
Precipitation 0.00 in - - ()
Sea Level Pressure  
Sea Level Pressure 30.00 in    
Wind  
Wind Speed 8 mph ()    
Max Wind Speed 15 mph    
Max Gust Speed -    
Visibility 6.2 miles    
Events      
Averages and records for this station are not official NWS values.
T = Trace of Precipitation, MM = Missing Value Source: Averaged Metar Reports

Daily Weather History Graph

Daily Weather History Graph

Search for Another Location

Airport or City:

Astronomy

Jul. 12, 2018 Rise Set
Actual Time 4:58 AM CEST 8:38 PM CEST
Civil Twilight 4:19 AM CEST 9:17 PM CEST
Nautical Twilight 3:26 AM CEST 10:09 PM CEST
Astronomical Twilight 2:13 AM CEST 11:21 PM CEST
Moon 4:09 AM CEST (7/12) 8:01 PM CEST (7/12)
Length of Visible Light 16h 57m
Length of Day
15h 40m
Waning Crescent, 1% of the Moon is Illuminated
Jul 12
Waning Crescent
Jul 13
New
Jul 19
First Quarter
Jul 27
Full
Aug 4
Last Quarter

Hourly Weather History & Observations

Time (CEST) Temp. Dew Point Humidity Pressure Visibility Wind Dir Wind Speed Gust Speed Precip Events Conditions
12:00 AM 62.6 °F 62.6 °F 100% 29.98 in - WNW 6.9 mph - N/A   Clear
12:30 AM 64.4 °F 62.6 °F 94% 29.98 in - WNW 6.9 mph - N/A   Clear
1:00 AM 62.6 °F 62.6 °F 100% 29.98 in 6.2 mi WNW 8.1 mph - N/A   Mostly Cloudy
2:00 AM 64.4 °F 60.8 °F 88% 29.98 in - WNW 9.2 mph - N/A   Clear
2:30 AM 64.4 °F 60.8 °F 88% 29.98 in - NW 11.5 mph - N/A   Clear
3:00 AM 62.6 °F 59.0 °F 88% 29.98 in - NW 9.2 mph - N/A   Clear
3:30 AM 60.8 °F 59.0 °F 94% 29.98 in - WNW 10.4 mph - N/A   Clear
4:00 AM 60.8 °F 60.8 °F 100% 29.98 in - NW 6.9 mph - N/A   Clear
4:30 AM 59.0 °F 57.2 °F 94% 29.98 in - NW 6.9 mph - N/A   Clear
5:00 AM 59.0 °F 57.2 °F 94% 29.98 in - WNW 6.9 mph - N/A   Clear
5:30 AM 59.0 °F 59.0 °F 100% 29.98 in - WNW 5.8 mph - N/A   Clear
6:00 AM 62.6 °F 57.2 °F 82% 30.01 in - WNW 9.2 mph - N/A   Clear
6:30 AM 62.6 °F 55.4 °F 77% 30.01 in - WNW 8.1 mph - N/A   Clear
7:00 AM 64.4 °F 55.4 °F 73% 30.01 in - WNW 9.2 mph - N/A   Clear
7:30 AM 66.2 °F 55.4 °F 68% 30.01 in - WNW 10.4 mph - N/A   Clear
8:00 AM 66.2 °F 53.6 °F 64% 30.01 in - West 10.4 mph - N/A   Clear
8:30 AM 66.2 °F 55.4 °F 68% 30.01 in - WNW 9.2 mph - N/A   Clear
9:00 AM 66.2 °F 53.6 °F 64% 30.04 in - West 9.2 mph - N/A   Clear
9:30 AM 68.0 °F 53.6 °F 60% 30.04 in - WNW 9.2 mph - N/A   Clear
10:00 AM 69.8 °F 51.8 °F 53% 30.01 in - WNW 8.1 mph - N/A   Clear
10:30 AM 71.6 °F 51.8 °F 50% 30.01 in - WNW 11.5 mph - N/A   Clear
11:00 AM 73.4 °F 51.8 °F 47% 30.01 in - West 13.8 mph - N/A   Clear
11:30 AM 73.4 °F 46.4 °F 38% 30.01 in - WNW 15.0 mph - N/A   Clear
12:00 PM 75.2 °F 48.2 °F 38% 30.01 in - WNW 15.0 mph - N/A   Clear
12:30 PM 75.2 °F 50.0 °F 41% 30.01 in - West 8.1 mph - N/A   Clear
1:00 PM 77.0 °F 53.6 °F 44% 30.01 in - WNW 11.5 mph - N/A   Clear
1:30 PM 77.0 °F 53.6 °F 44% 30.01 in - West 9.2 mph - N/A   Clear
2:00 PM 77.0 °F 55.4 °F 47% 30.01 in - West 10.4 mph - N/A   Clear
2:30 PM 77.0 °F 51.8 °F 41% 30.01 in - WSW 9.2 mph - N/A   Clear
3:00 PM 77.0 °F 51.8 °F 41% 30.01 in - West 13.8 mph - N/A   Clear
3:30 PM 77.0 °F 51.8 °F 41% 30.01 in - West 13.8 mph - N/A   Clear
4:00 PM 77.0 °F 51.8 °F 41% 30.01 in - WSW 11.5 mph - N/A   Clear
4:30 PM 75.2 °F 51.8 °F 44% 30.01 in - WSW 10.4 mph - N/A   Clear
5:00 PM 77.0 °F 51.8 °F 41% 30.01 in - WSW 9.2 mph - N/A   Clear
5:30 PM 77.0 °F 51.8 °F 41% 29.98 in - WSW 9.2 mph - N/A   Clear
6:00 PM 77.0 °F 51.8 °F 41% 29.98 in - WSW 10.4 mph - N/A   Clear
6:30 PM 77.0 °F 51.8 °F 41% 29.98 in - SW 10.4 mph - N/A   Clear
7:00 PM 77.0 °F 53.6 °F 44% 29.98 in - SW 10.4 mph - N/A   Clear
7:30 PM 75.2 °F 55.4 °F 50% 29.98 in - SW 8.1 mph - N/A   Clear
8:00 PM 73.4 °F 53.6 °F 50% 29.98 in - WSW 6.9 mph - N/A   Clear
8:30 PM 71.6 °F 53.6 °F 53% 29.98 in - WSW 6.9 mph - N/A   Clear
9:00 PM 71.6 °F 53.6 °F 53% 30.01 in - WSW 5.8 mph - N/A   Clear
9:30 PM 68.0 °F 55.4 °F 64% 30.01 in - Variable 3.5 mph - N/A   Clear
10:00 PM 66.2 °F 55.4 °F 68% 30.01 in - Variable 1.2 mph - N/A   Clear
10:30 PM 60.8 °F 55.4 °F 82% 30.01 in - Variable 2.3 mph - N/A   Clear
11:00 PM 62.6 °F 57.2 °F 82% 30.01 in - Calm Calm - N/A   Clear
11:30 PM 62.6 °F 57.2 °F 82% 30.01 in - Calm Calm - N/A   Clear